Weather History for YBHM - August, 2014

Change the Weather History Date:

Wednesday, August 20, 2014

  Actual Average Record
Temperature  
Mean Temperature 66 °F -  
Max Temperature 71 °F - - ()
Min Temperature 61 °F - - ()
Cooling Degree Days 1    
Growing Degree Days 16 (Base 50)    
Moisture  
Dew Point 54 °F    
Average Humidity 65    
Maximum Humidity 82    
Minimum Humidity 45    
Precipitation  
Precipitation 0.00 in - - ()
Sea Level Pressure  
Sea Level Pressure 30.07 in    
Wind  
Wind Speed 9 mph ()    
Max Wind Speed 20 mph    
Max Gust Speed -    
Visibility 6.2 miles    
Events      
T = Trace of Precipitation, MM = Missing Value Source: Averaged Metar Reports

Daily Weather History Graph

Daily Weather History Graph

Search for Another Location

Airport or City:

Trip Planner

Search our weather history database for the weather conditions in past years. The results will help you decide how hot, cold, wet, or windy it might be!

Date:

Astronomy

Aug. 20, 2014 Rise Set
Actual Time 6:23 AM AEST 5:52 PM AEST
Civil Twilight 6:00 AM AEST 6:15 PM AEST
Nautical Twilight 5:34 AM AEST 6:41 PM AEST
Astronomical Twilight 5:08 AM AEST 7:06 PM AEST
Moon 2:06 AM AEST (8/20) 1:29 PM AEST (8/20)
Length of Visible Light 12h 14m
Length of Day
11h 29m
Waning Crescent, 25% of the Moon is Illuminated
Aug 20
Waning Crescent
Aug 26
New
Sep 2
First Quarter
Sep 9
Full
Sep 16
Last Quarter

Hourly Weather History & Observations

Time (AEST) Temp. Dew Point Humidity Pressure Visibility Wind Dir Wind Speed Gust Speed Precip Events Conditions
12:00 AM 62 °F 54 °F 66% 30.08 in - NNW 8.1 mph - -  
12:00 AM 62.6 °F 53.6 °F 72% 30.06 in 6.2 mi NNW 8.1 mph - N/A   Unknown
12:30 AM 62.6 °F 55.4 °F 77% 30.06 in 6.2 mi NNW 6.9 mph - N/A   Unknown
1:00 AM 62.6 °F 55.4 °F 77% 30.06 in 6.2 mi NNW 6.9 mph - N/A   Unknown
1:30 AM 62.6 °F 55.4 °F 77% 30.04 in 6.2 mi NNW 6.9 mph - N/A   Unknown
2:00 AM 62.6 °F 55.4 °F 77% 30.04 in 6.2 mi NW 4.6 mph - N/A   Unknown
2:30 AM 62.6 °F 55.4 °F 77% 30.04 in 6.2 mi Calm Calm - N/A   Unknown
3:00 AM 62 °F 56 °F 75% 30.05 in - Calm Calm - -  
3:00 AM 62.6 °F 55.4 °F 77% 30.04 in 6.2 mi Calm Calm - N/A   Unknown
3:30 AM 62.6 °F 57.2 °F 82% 30.04 in 6.2 mi Calm Calm - N/A   Unknown
4:00 AM 62.6 °F 57.2 °F 82% 30.04 in 6.2 mi WSW 3.5 mph - N/A   Unknown
4:30 AM 62.6 °F 57.2 °F 82% 30.04 in 6.2 mi SW 3.5 mph - N/A   Unknown
5:00 AM 62.6 °F 55.4 °F 77% 30.04 in 6.2 mi SSE 4.6 mph - N/A   Unknown
5:30 AM 62.6 °F 57.2 °F 82% 30.06 in 6.2 mi SW 3.5 mph - N/A   Unknown
6:00 AM 62 °F 55 °F 71% 30.06 in - SW 6.9 mph - -  
6:00 AM 62.6 °F 55.4 °F 77% 30.06 in 6.2 mi SW 6.9 mph - N/A   Unknown
6:30 AM 62.6 °F 55.4 °F 77% 30.06 in 6.2 mi SW 4.6 mph - N/A   Unknown
7:00 AM 64.4 °F 55.4 °F 73% 30.06 in 6.2 mi South 5.8 mph - N/A   Unknown
7:30 AM 66.2 °F 57.2 °F 73% 30.06 in 6.2 mi ESE 4.6 mph - N/A   Unknown
8:00 AM 66.2 °F 55.4 °F 68% 30.09 in 6.2 mi SSE 10.4 mph - N/A   Unknown
8:30 AM 66.2 °F 57.2 °F 73% 30.09 in 6.2 mi SSE 12.7 mph - N/A   Unknown
9:00 AM 66 °F 54 °F 57% 30.12 in - South 11.5 mph - -  
9:00 AM 66.2 °F 53.6 °F 64% 30.12 in 6.2 mi South 11.5 mph - N/A   Unknown
9:30 AM 68.0 °F 53.6 °F 60% 30.12 in 6.2 mi SSE 15.0 mph - N/A   Unknown
10:00 AM 68.0 °F 51.8 °F 56% 30.09 in 6.2 mi SSE 16.1 mph - N/A   Unknown
10:30 AM 66.2 °F 51.8 °F 60% 30.09 in 6.2 mi SSE 15.0 mph - N/A   Unknown
11:00 AM 68.0 °F 53.6 °F 60% 30.09 in 6.2 mi SSE 15.0 mph - N/A   Unknown
11:30 AM 68.0 °F 53.6 °F 60% 30.09 in 6.2 mi SSE 15.0 mph - N/A   Unknown
12:00 PM 69 °F 55 °F 52% 30.08 in - SSE 13.8 mph - -  
12:00 PM 68.0 °F 55.4 °F 64% 30.06 in 6.2 mi SSE 13.8 mph - N/A   Unknown
12:30 PM 68.0 °F 55.4 °F 64% 30.06 in 6.2 mi SSE 12.7 mph - N/A   Unknown
1:00 PM 69.8 °F 55.4 °F 60% 30.04 in 6.2 mi SSE 13.8 mph - N/A   Unknown
1:30 PM 71.6 °F 55.4 °F 57% 30.04 in 6.2 mi SE 13.8 mph - N/A   Unknown
2:00 PM 69.8 °F 55.4 °F 60% 30.04 in 6.2 mi SE 15.0 mph - N/A   Unknown
2:30 PM 69.8 °F 51.8 °F 53% 30.04 in 6.2 mi ESE 15.0 mph - N/A   Unknown
3:00 PM 69 °F 53 °F 45% 30.03 in - ESE 15.0 mph - -  
3:00 PM 69.8 °F 51.8 °F 53% 30.04 in 6.2 mi ESE 15.0 mph - N/A   Unknown
3:30 PM 68.0 °F 53.6 °F 60% 30.01 in 6.2 mi ESE 16.1 mph - N/A   Unknown
4:00 PM 68.0 °F 53.6 °F 60% 30.04 in 6.2 mi ESE 16.1 mph - N/A   Unknown
4:30 PM 68.0 °F 53.6 °F 60% 30.04 in 6.2 mi ESE 17.3 mph - N/A   Unknown
5:00 PM 68.0 °F 53.6 °F 60% 30.04 in 6.2 mi ESE 18.4 mph - N/A   Unknown
5:30 PM 68.0 °F 57.2 °F 68% 30.04 in 6.2 mi ESE 18.4 mph - N/A   Unknown
6:00 PM 67 °F 55 °F 57% 30.06 in - East 18.4 mph - -  
6:00 PM 66.2 °F 55.4 °F 68% 30.06 in 6.2 mi East 18.4 mph - N/A   Unknown
6:30 PM 68.0 °F 55.4 °F 64% 30.06 in 6.2 mi East 19.6 mph - N/A   Unknown
7:00 PM 68.0 °F 50.0 °F 52% 30.06 in 6.2 mi East 19.6 mph - N/A   Unknown
7:30 PM 68.0 °F 51.8 °F 56% 30.09 in 6.2 mi East 18.4 mph - N/A   Unknown
8:00 PM 68.0 °F 53.6 °F 60% 30.09 in 6.2 mi East 17.3 mph - N/A   Unknown
8:30 PM 68.0 °F 53.6 °F 60% 30.09 in 6.2 mi East 15.0 mph - N/A   Unknown
9:00 PM 67 °F 53 °F 51% 30.12 in - East 16.1 mph - -  
9:00 PM 68.0 °F 53.6 °F 60% 30.09 in 6.2 mi East 16.1 mph - N/A   Unknown
9:30 PM 66.2 °F 51.8 °F 60% 30.09 in 6.2 mi East 13.8 mph - N/A   Unknown
10:00 PM 66.2 °F 51.8 °F 60% 30.09 in 6.2 mi East 11.5 mph - N/A   Unknown
10:30 PM 66.2 °F 51.8 °F 60% 30.09 in 6.2 mi East 13.8 mph - N/A   Unknown
11:00 PM 66.2 °F 53.6 °F 64% 30.09 in 6.2 mi East 12.7 mph - N/A   Unknown
11:30 PM 68.0 °F 53.6 °F 60% 30.09 in 6.2 mi East 13.8 mph - N/A   Unknown